Location: Doln� Kramol�n
(49.9110°N, 12.7489°E)
Time: 17:47:11
(UTC+00:00)

Daily predictions for brighter satellites

Satellite Brightness Start Highest point End
(mag) Time Altitude Azimuth Time Altitude Azimuth Time Altitude Azimuth
USA 267 3.8 19:50:04 10° E 19:56:29 59° NNE 20:02:55 10° WNW
Meteor 1-21 Rocket 4.4 19:51:09 10° S 19:57:03 77° E 20:02:59 10° NNE
Alouette 2 Rocket 3.8 19:56:43 10° N 20:00:24 57° ENE 20:05:10 10° SSE
Cosmos 1953 Rocket 4.4 19:57:24 10° SSE 20:01:15 32° E 20:05:06 10° NNE
Cosmos 2322 Rocket 2.5 19:56:58 10° SW 20:02:35 75° WNW 20:08:14 10° NNE
SL-08 ROCKET BODY 4.4 19:57:30 10° S 20:03:27 83° E 20:09:33 10° N
NOSS 7 (D) 3.8 20:01:48 10° SSW 20:04:34 57° SE 20:07:13 10° NE
Cosmos 2237 4.2 19:59:36 10° SSW 20:05:17 72° ESE 20:11:02 10° NNE
Cosmos 2084 4.3 20:02:12 10° NW 20:06:33 47° NE 20:10:51 10° ESE
Cosmos 1328 4.0 20:03:41 10° S 20:07:32 51° E 20:11:25 10° NNE
SAR-Lupe-2 4.3 20:06:01 10° NNE 20:09:22 36° E 20:12:42 10° SSE
Cosmos 1455 2.6 20:07:41 10° NNW 20:11:31 63° W 20:15:19 10° S
Cosmos 1825 Rocket 3.6 20:12:28 10° S 20:16:52 68° E 20:21:19 10° NNE
ATLAS CENTAUR R/B 1.7 20:15:00 10° NNW 20:18:38 48° NE 20:22:10 10° ESE
Cosmos 1703 3.2 20:17:34 10° S 20:21:27 83° E 20:25:21 10° NNE
COSMOS 2428 3.4 20:17:35 10° SSE 20:22:34 33° ESE 20:27:36 10° NE
Cosmos 1844 3.9 20:17:55 10° NNW 20:23:43 77° WSW 20:29:25 10° SSE
Cosmos 2322 3.9 20:20:47 10° S 20:26:21 56° ESE 20:31:57 10° NE
CZ-4B DEB 4.4 20:28:15 10° SSE 20:31:36 89° WSW 20:34:59 10° NNW
Cosmos 1709 Rocket 4.0 20:26:46 10° S 20:33:02 79° E 20:39:26 10° NNE
NOSS 3-3 (A) 4.3 20:29:27 10° S 20:34:53 41° ESE 20:40:57 10° NE
NOSS 3-3 (C) 4.4 20:29:34 10° S 20:35:00 41° ESE 20:41:04 10° NE
Terra 2.1 20:31:40 12° SSE 20:36:02 56° ENE 20:40:44 10° N
Atlas Centaur 2 4.2 20:33:30 10° SSW 20:36:20 13° S 20:38:47 11° SSE
Cosmos 2237 Rocket 3.7 20:33:12 11° SE 20:36:30 18° E 20:40:15 10° ENE
CARTOSAT-1 3.6 20:32:57 10° SSE 20:37:11 85° ENE 20:41:32 10° NNW
Cosmos 2333 4.2 20:32:33 10° SSW 20:38:07 66° ESE 20:43:47 10° NNE
Cosmos 2219 Rocket 2.5 20:33:14 10° S 20:38:32 47° ESE 20:43:54 10° NE
IGS 5A 4.3 20:36:27 10° S 20:40:28 46° W 20:44:30 10° NNW
Cosmos 2360 Rocket 2.6 20:34:50 10° SW 20:40:28 71° WNW 20:46:10 10° NNE
Cosmos 1538 Rocket 4.4 20:36:16 10° S 20:41:23 48° ESE 20:46:30 10° NNE
Cosmos 2333 Rocket 2.3 20:42:44 10° S 20:48:18 60° ESE 20:53:57 10° NE
Cosmos 1315 Rocket 2.9 20:46:45 10° N 20:50:52 78° ENE 20:54:13 15° SSE
ATLAS 2AS CENTAUR R/B 3.5 20:43:54 10° NW 20:51:28 54° NE 20:58:27 10° ESE
Resurs 01 Rocket 4.0 20:49:35 10° SW 20:52:37 18° W 20:55:40 10° NW
Cosmos-2242 4.2 20:50:09 10° NNW 20:54:13 40° W 20:58:17 10° SSW
Cosmos 1818 4.0 20:50:29 10° SW 20:55:53 67° NW 21:01:21 10° NE
Cosmos 773 Rocket 4.1 20:53:02 10° SSW 20:58:21 88° WNW 21:03:40 10° NNE
Cosmos 2221 2.8 20:55:00 10° N 20:59:19 56° ENE 21:02:29 17° SSE
SL-16 R/B 4.3 20:54:54 10° WSW 20:59:51 30° NW 21:04:49 10° NNE
ERS-1 Rocket 3.4 20:56:51 11° S 21:01:42 59° WSW 21:06:42 10° NNW
GEOS 3 Rocket 3.8 20:57:03 10° NE 21:02:28 81° NW 21:07:52 10° SW
USA 215 3.3 20:59:15 10° ENE 21:05:46 62° SE 21:12:14 10° SW
Cosmos 2278 Rocket 2.3 21:03:01 10° NNW 21:08:44 71° ENE 21:13:09 17° SE
Cosmos 1892 3.6 21:07:02 19° SE 21:09:01 32° E 21:12:26 10° NNE
ATLAS 5 CENTAUR R/B 2.4 21:08:25 10° WSW 21:12:34 55° NW 21:17:22 10° NE
Cosmos 1844 Rocket 4.2 21:08:28 10° NW 21:13:07 28° WSW 21:17:45 10° SSW
Gblst 52 Del rocket 4.4 21:09:36 10° WNW 21:15:15 65° SSW 21:20:33 15° SE
Cosmos 1943 Rocket 4.3 21:12:07 10° N 21:16:15 20° NE 21:20:22 10° E
SPOT 5 3.6 21:13:56 12° S 21:18:28 48° W 21:23:07 10° NNW
SL-16 R/B 3.9 21:18:56 13° ESE 21:20:55 15° E 21:24:02 10° ENE
Lacrosse 5 rocket 3.3 21:17:37 10° WNW 21:21:20 29° N 21:24:51 10° ENE
Cosmos 2056 Rocket 4.4 21:18:21 10° NNW 21:23:30 42° ENE 21:27:39 15° SE
Nadezhda 3 Rocket 4.2 21:18:14 10° N 21:24:35 62° ENE 21:29:11 19° SSE
Cosmos 2058 3.2 21:25:00 22° SSE 21:27:27 53° E 21:31:30 10° NNE
Cosmos 2154 Rocket 4.3 21:23:04 18° SSE 21:27:32 54° E 21:33:35 10° NNE
BREEZE M DEB (TANK) 4.0 21:27:00 10° WSW 21:27:39 12° SW 21:27:39 12° SW
Cosmos 1408 3.5 21:29:05 24° SE 21:30:30 33° E 21:33:44 10° NNE
Meteor 2-17 Rocket 4.4 21:27:25 16° S 21:32:18 73° E 21:38:21 10° NNE
In-Cosmos 22 Rocket 4.1 21:29:55 18° S 21:33:51 69° E 21:39:10 10° NNE
Cosmos 2074 Rocket 4.0 21:29:15 13° S 21:34:50 90° WSW 21:41:06 10° N
TSX-5 3.6 21:31:58 10° NW 21:35:25 74° WSW 21:37:36 25° SSE
Cosmos 1076 Rocket 3.6 21:36:08 23° S 21:38:39 62° E 21:42:54 10° NNE
Cosmos 1680 Rocket 3.8 21:35:41 20° S 21:39:10 51° ESE 21:44:20 10° NNE
USA 267 3.3 21:34:04 16° SE 21:39:27 72° SW 21:46:02 10° WNW
CZ-4C R/B 4.3 21:38:46 10° NW 21:44:42 34° NNE 21:51:34 10° E
Cosmos 1842 Rocket 4.4 21:41:54 10° NNW 21:46:02 43° W 21:49:02 17° SSW
JB-3 4.5 21:43:23 10° N 21:47:14 68° WNW 21:49:57 18° SSW
COSMOS 2455 4.2 21:43:07 10° NNW 21:48:39 35° NE 21:54:10 10° ESE
EO 1 Delta rocket 4.5 21:44:09 10° NNE 21:49:06 55° E 21:52:50 22° SSE
Cosmos 2151 3.8 21:47:18 24° SE 21:49:10 36° E 21:53:05 10° NNE
Cosmos 923 Rocket 4.0 21:52:20 15° SSW 21:56:40 87° ESE 22:02:00 10° NNE
Cosmos 2327 Rocket 4.5 21:52:14 18° S 21:57:02 89° W 22:03:12 10° N
ATLAS CENTAUR R/B 2.8 21:54:28 10° WNW 21:57:12 20° WSW 21:58:26 17° SW
Cosmos 1825 2.5 21:58:09 31° SSE 21:59:34 49° E 22:03:15 10° NNE
ALOS 2 3.2 21:58:03 23° SE 22:00:28 47° ENE 22:04:42 10° N
Cosmos 2369 Rocket 4.0 21:56:14 10° NNW 22:00:53 26° NE 22:05:32 10° E
Cosmos 1151 Rocket 4.1 21:56:59 10° N 22:01:00 35° ENE 22:03:13 21° ESE
Cosmos 1980 3.6 21:56:55 16° SSW 22:01:32 78° ESE 22:07:12 10° NNE
Cosmos 44 4.1 22:05:15 25° SE 22:06:00 27° ESE 22:09:42 10° ENE
COSMOS 2428 3.6 22:01:10 10° SW 22:06:39 50° NW 22:12:12 10° NNE
Cosmos 371 Rocket 4.1 22:03:56 10° NNW 22:08:37 44° ENE 22:11:47 19° SE
GP-B 3.8 22:05:10 10° NNE 22:09:25 42° E 22:11:23 26° SE
Cosmos 1295 Rocket 4.4 22:06:31 22° S 22:10:44 85° E 22:16:52 10° N
NOSS 0 Rocket 4.0 22:07:49 10° SW 22:13:59 80° WNW 22:20:13 10° NNE
Cosmos 1624 Rocket 4.0 22:08:49 10° NNW 22:14:06 84° WSW 22:16:57 27° SSE
Terra 3.7 22:10:34 10° SW 22:14:08 21° W 22:17:45 10° NW
NOSS 3-4 (A) 3.9 22:07:51 10° NW 22:14:44 68° SW 22:19:47 23° SSE
NOSS 3-4 (C) 3.9 22:07:57 10° NW 22:14:51 69° SW 22:19:55 23° SSE
SL-4 R/B 2.5 22:19:54 20° ENE 22:19:54 20° ENE 22:21:22 10° NNE
Cosmos 2237 Rocket 2.2 22:14:58 15° SSW 22:19:49 85° WNW 22:25:35 10° NNE
Genesis I 3.1 22:18:36 28° SSW 22:20:30 70° SE 22:24:23 10° NE
CREW DRAGON DEMO-1 DEB 4.2 22:22:53 26° E 22:22:53 26° E 22:24:34 10° E
Cosmos 2344 3.6 22:16:02 14° SSW 22:22:34 65° SE 22:30:35 10° NE
Cosmos 2219 Rocket 3.6 22:17:31 10° WSW 22:22:39 36° NW 22:27:50 10° NNE
Elektron 1 4.5 22:21:21 17° SW 22:23:53 89° NNW 22:29:55 10° NE
Cosmos 1346 Rocket 4.3 22:28:04 20° ESE 22:29:10 23° E 22:32:17 10° NE
Thor Agena Rocket 3.7 22:24:44 10° NNE 22:29:51 70° WNW 22:33:18 21° SSW
DELTA 2 R/B (1) 4.4 22:25:56 10° SW 22:36:22 - ESE 22:30:03 27° S
Cosmos 2333 Rocket 4.0 22:27:55 10° WSW 22:32:57 31° NW 22:38:04 10° NNE
RESURS DK-1 4.4 22:35:54 10° N 22:39:17 23° NE 22:42:39 10° E
Cosmos 1515 Rocket 4.1 22:36:59 10° N 22:41:15 50° ENE 22:43:15 28° SE
BREEZE-M DEB (TANK) 2.0 22:38:35 10° W 22:41:22 38° SW 22:41:22 38° SW
ATLAS 2AS CENTAUR R/B 3.1 22:35:16 10° NW 22:42:32 52° WSW 22:46:25 26° S
EO 1 Del DPAF 4.0 22:39:21 10° N 22:42:58 45° WNW 22:44:59 23° SW
Cosmos 1766 Rocket 3.5 22:44:24 33° S 22:46:19 89° SE 22:50:46 10° N
Cosmos 1328 Rocket 3.4 22:44:20 10° N 22:48:41 86° WSW 22:50:25 36° S
USA 215 3.7 22:42:21 10° ENE 22:48:50 63° NNW 22:55:17 10° W
Gbstr 26 Del rocket 3.9 22:49:28 26° SE 22:49:28 26° SE 22:52:20 10° E
Aureole 2 Rocket 2.5 22:46:10 10° NW 22:48:53 43° WSW 22:48:59 43° WSW
Okean 3 Rocket 3.6 22:47:02 30° SSW 22:49:10 75° W 22:53:37 10° N
Cosmos 1606 2.9 22:47:09 10° NNW 22:51:00 61° W 22:52:19 37° SSW
Cosmos 2278 Rocket 3.8 22:48:01 10° NW 22:52:16 22° WSW 22:54:59 16° SW
Cosmos 2297 3.8 22:48:33 10° NNW 22:54:16 66° WSW 22:57:11 29° S
Cosmos 2218 Rocket 4.0 22:50:54 27° S 22:54:40 82° E 23:00:59 10° N
Cosmos 304 Rocket 4.3 22:50:21 10° NNW 22:55:08 56° ENE 22:58:04 22° SE
Cosmos 2228 Rocket 4.0 22:52:31 10° N 22:56:54 42° ENE 22:59:19 23° SE
Cosmos 1420 Rocket 4.1 22:52:47 10° NNW 22:58:02 69° WSW 23:00:36 31° S
Cosmos 2366 rocket 4.0 22:56:35 27° S 23:00:20 86° E 23:06:44 10° N
Cosmos 1943 Rocket 2.3 22:55:17 10° NNW 23:01:00 76° ENE 23:04:40 23° SE
Lacrosse 5 rocket 2.1 22:57:13 10° NW 23:01:10 48° NNE 23:04:52 10° E
Cosmos 1633 3.1 23:01:11 36° SE 23:02:06 45° E 23:05:34 10° NNE
Landsat 4 4.3 22:59:19 10° NNE 23:02:57 43° E 23:03:59 34° SE
SL-16 R/B 2.1 23:00:47 26° SSW 23:04:09 84° ESE 23:09:52 10° NNE
Cosmos 1959 Rocket 4.5 23:06:20 26° SSW 23:09:58 81° W 23:16:13 10° N
YAOGAN 11 4.0 23:09:09 34° SSE 23:11:02 89° W 23:15:29 10° NNW
Cosmos 1743 Rocket 3.8 23:12:36 34° SSE 23:14:15 56° E 23:18:31 10° NNE
Cosmos 332 Rocket 3.8 23:14:38 10° NNW 23:19:25 66° WSW 23:21:28 33° S
Cosmos 1048 Rocket 4.3 23:19:32 30° S 23:21:57 55° ESE 23:27:05 10° NNE
USA 267 4.4 23:21:24 21° SSW 23:23:13 24° SW 23:28:22 10° WNW
Meteor 2-3 Rocket 3.8 23:21:02 27° SSW 23:24:11 78° WNW 23:29:56 10° N
Helios 1A 3.3 23:24:53 34° SSW 23:26:18 50° W 23:30:24 10° NNW
Cosmos 405 2.9 23:24:41 10° NNW 23:28:14 74° W 23:29:08 47° S
Meteor 1-29 4.4 23:25:31 10° NE 23:28:22 25° E 23:29:10 23° ESE
Meteor 1-10 Rocket 4.5 23:26:43 10° N 23:32:16 62° ENE 23:35:50 22° SSE
Cosmos 1452 Rocket 3.8 23:27:40 10° NNW 23:32:47 52° WSW 23:35:06 30° SSW
CZ-4C R/B 3.0 23:27:15 10° NW 23:34:16 78° NE 23:42:28 10° SE
Meteor 2-6 Rocket 4.2 23:29:13 10° N 23:34:44 76° ENE 23:37:54 26° SSE
PSLV R/B 3.6 23:30:41 10° NNE 23:34:53 64° ESE 23:36:34 34° S
Cosmos 389 Rocket 4.5 23:31:59 10° NNE 23:34:54 23° ENE 23:37:05 14° ESE
COSMOS 2455 2.9 23:29:01 10° NW 23:34:59 63° WSW 23:38:24 26° SSE
Cosmos 1340 3.5 23:34:23 27° WSW 23:35:53 41° WNW 23:39:29 10° N
Cosmos 1110 Rocket 4.1 23:31:31 10° NNW 23:36:49 77° ENE 23:40:16 22° SSE
ALOS 2 4.3 23:35:27 18° WSW 23:37:02 22° W 23:40:28 10° NW
Cosmos 1408 Rocket 4.2 23:35:56 26° SW 23:38:01 46° WNW 23:42:17 10° N
SL-16 R/B 3.8 23:32:49 10° SE 23:38:23 36° ENE 23:44:01 10° N
Cosmos 1151 Rocket 4.4 23:34:47 10° NNW 23:38:25 26° W 23:40:03 21° WSW
Cosmos 1603 4.2 23:36:25 27° S 23:39:08 49° ESE 23:44:39 10° NE
Cosmos 1727 Rocket 4.4 23:38:32 10° NNW 23:44:35 54° W 23:48:04 25° SSW
APEX 4.2 23:42:45 10° WNW 23:44:21 21° W 23:44:21 21° W
Resurs 1-4 Rocket 3.9 23:41:10 10° NE 23:45:11 21° E 23:48:44 12° SE
Cosmos 2369 Rocket 2.1 23:39:53 10° NNW 23:45:30 75° WSW 23:48:49 25° SSE
Cosmos 1500 Rocket 3.6 23:44:49 33° SSW 23:46:44 74° W 23:51:09 10° N
Cosmos 44 3.8 23:43:38 16° WSW 23:46:57 49° NW 23:51:20 10° NNE
SeaSat 1 3.9 23:45:03 10° NE 23:49:09 26° ESE 23:51:20 19° SE
ISS -1.7 23:51:00 16° ESE 23:51:00 16° ESE 23:52:26 10° E
Helios 1B rocket 2.4 23:49:31 10° NNE 23:53:41 83° ESE 23:55:23 35° S
